Regional Weather Roundup
Issued by NWS

Current Version | Previous Version | Text Only | Print | Product List | Glossary On
Versions: 1 2 3 4 5 6 7 8 9 10 11 12 13 14 15 16 17 18 19 20 21 22 23 24 25 26 27 28 29 30 31 32 33 34 35 36 37 38 39 40 41 42 43 44 45 46 47 48 49 50
000
ASUS44 KLIX 192010
RWRLA
LOUISIANA WEATHER ROUNDUP
NATIONAL WEATHER SERVICE NEW ORLEANS LA
300 PM CDT FRI SEP 19 2014

NOTE: "FAIR" INDICATES FEW OR NO CLOUDS BELOW 12,000 FEET WITH NO
      SIGNIFICANT WEATHER AND/OR OBSTRUCTIONS TO VISIBILITY.
      SKY/WX - SKY CONDITION AND SIGNIFICANT WEATHER.
      TMP - AIR TEMPERATURE.    DP   - DEWPOINT TEMPERATURE.
      RH  - RELATIVE HUMIDITY.  PRES - PRESSURE.
      HX  - HEAT INDEX.         WCI  - WIND CHILL INDEX.

*  THESE STATIONS ARE NOT NWS OR FAA STATIONS AND ARE NOT UNDER
   NWS QUALITY CONTROL.

LAZ040-048-061>063-065-066-069-192100-
SOUTHEAST LOUISIANA

CITY           SKY/WX    TMP DP  RH WIND       PRES   REMARKS
N.O. AUDUBON     N/A     87  71  60 MISG        N/A
N.O. INTL ARPT MOSUNNY   87  66  49 E14G22    29.92F
N.O. LAKEFRONT PTSUNNY   85  69  58 E16       29.93F
N.O. DOWNTOWN* FAIR      86  66  51 E9G18     29.93F
SLIDELL        SUNNY     87  67  51 E8G17     29.93F
BATON ROUGE    PTSUNNY   87  69  54 E9        29.93F
BOOTHVILLE     CLOUDY    79  72  79 E9        29.92F
BELLE CHASSE   LGT RAIN  81  72  74 SE14      29.92F
BOGALUSA*      LGT RAIN  85  72  64 N6        29.95F
GALLIANO*      NOT AVBL
NEW ROADS*     FAIR      87  70  57 E8        29.93F
GONZALES*      FAIR      86  70  58 E9        29.92F
HAMMOND*       LGT RAIN  81  72  74 N6        29.95F
HOUMA*         PTSUNNY   88  46  23 NE12      29.91F
PORT FOURCHON* MOCLDY    77  72  83 E16G29    29.95S

$$

LAZ041-044-053-054-192100-
SOUTHWEST LOUISIANA

CITY           SKY/WX    TMP DP  RH WIND       PRES   REMARKS
LAKE CHARLES   PTSUNNY   85  72  65 E14       29.91F
LAFAYETTE      MOSUNNY   87  71  58 VRB5      29.92F
PATTERSON      MOSUNNY   88  72  58 E9G17       N/A
SALT POINT       N/A     89  72  56 VRB6      29.89F HX  96
NEW IBERIA     MOSUNNY   87  71  58 E9        29.92F
CHENAULT AIRPK NOT AVBL

$$

LAZ027-028-192100-
CENTRAL LOUISIANA

CITY           SKY/WX    TMP DP  RH WIND       PRES   REMARKS
FORT POLK      MOSUNNY   87  69  54 E13       29.93F
ALEXANDRIA INT SUNNY     88  68  51 SE9       29.92F
ALEXANDRIA     MOSUNNY   89  69  51 E7        29.94F

$$

LAZ001-002-192100-
NORTHWEST LOUISIANA

CITY           SKY/WX    TMP DP  RH WIND       PRES   REMARKS
SHREVEPORT     MOSUNNY   90  68  48 E5        29.93F
BARKSDALE AFB  MOSUNNY   89  68  50 E5        29.94F
DTN SHREVEPORT PTSUNNY   88  69  53 E7        29.94F

$$

LAZ014-016-192100-
NORTHEAST LOUISIANA

CITY           SKY/WX    TMP DP  RH WIND       PRES   REMARKS
MONROE         MOSUNNY   87  68  52 CALM      29.96F
TALLULAH       MOSUNNY   90  66  45 NE8       29.96F

$$



USA.gov is the U.S. government's official web portal to all federal, state and local government web resources and services.